Weather History for Crestview, FL

Change the Weather History Date:

Wednesday, July 24, 2013

  Actual Average Record
Temperature  
Mean Temperature 78 °F -  
Max Temperature 86 °F - - ()
Min Temperature 71 °F - - ()
Cooling Degree Days 14    
Growing Degree Days 28 (Base 50)    
Moisture  
Dew Point 75 °F    
Average Humidity 87    
Maximum Humidity 100    
Minimum Humidity 70    
Precipitation  
Precipitation 0.52 in - - ()
Sea Level Pressure  
Sea Level Pressure 29.92 in    
Wind  
Wind Speed 7 mph (West)    
Max Wind Speed 17 mph    
Max Gust Speed 25 mph    
Visibility 10 miles    
Events Rain , Thunderstorm    
T = Trace of Precipitation, MM = Missing Value Source: NWS Daily Summary

Daily Weather History Graph

Daily Weather History Graph

Search for Another Location

Airport:

Trip Planner

Search our weather history database for the weather conditions in past years. The results will help you decide how hot, cold, wet, or windy it might be!

Date:

Astronomy

Jul. 24, 2013 Rise Set
Actual Time 5:59 AM CDT 7:45 PM CDT
Civil Twilight 5:32 AM CDT 8:12 PM CDT
Nautical Twilight 5:00 AM CDT 8:44 PM CDT
Astronomical Twilight 4:26 AM CDT 9:18 PM CDT
Moon 9:07 PM CDT (7/24) 8:05 AM CDT (7/24)
Length of Visible Light 14h 39m
Length of Day
13h 46m
Waning Gibbous, 94% of the Moon is Illuminated
Jul 24
Waning Gibbous
Jul 29
Last Quarter
Aug 6
New
Aug 14
First Quarter
Aug 20
Full

Hourly Weather History & Observations

Time (CDT) Temp. Heat Index Dew Point Humidity Pressure Visibility Wind Dir Wind Speed Gust Speed Precip Events Conditions
12:01 AM 71.6 °F - 71.6 °F 100% 29.96 in 10.0 mi SSE 4.6 mph - N/A   Scattered Clouds
12:58 AM 71.6 °F - 71.4 °F 99% 29.94 in 10.0 mi South 5.8 mph - N/A   Clear
1:58 AM 72.3 °F - 71.4 °F 97% 29.92 in 10.0 mi South 6.9 mph - N/A   Clear
2:58 AM 72.7 °F - 72.5 °F 99% 29.91 in 10.0 mi South 5.8 mph - N/A   Clear
3:58 AM 74.1 °F - 73.8 °F 99% 29.91 in 10.0 mi SSW 4.6 mph - N/A   Clear
4:58 AM 77.4 °F - 77.0 °F 99% 29.92 in 10.0 mi WSW 5.8 mph - N/A   Clear
5:37 AM 77.0 °F - 77.0 °F 100% 29.93 in 10.0 mi West 8.1 mph - N/A Rain Light Rain
5:51 AM 78.8 °F - 77.0 °F 94% 29.93 in 10.0 mi West 11.5 mph - N/A   Clear
5:58 AM 78.1 °F - 77.5 °F 98% 29.94 in 10.0 mi West 9.2 mph - 0.00 in   Clear
6:58 AM 77.9 °F - 77.0 °F 97% 29.94 in 10.0 mi West 8.1 mph - N/A   Clear
7:58 AM 79.3 °F - 76.6 °F 91% 29.95 in 10.0 mi West 12.7 mph - N/A   Clear
8:55 AM 80.8 °F 87.1 °F 76.3 °F 86% 29.95 in 10.0 mi West 10.4 mph - N/A   Mostly Cloudy
9:21 AM 82.4 °F 90.9 °F 77.0 °F 84% 29.94 in 10.0 mi West 11.5 mph - N/A   Overcast
9:55 AM 83.3 °F 92.1 °F 76.5 °F 80% 29.94 in 10.0 mi West 8.1 mph - N/A   Overcast
10:55 AM 83.7 °F 92.4 °F 76.1 °F 78% 29.95 in 10.0 mi West 12.7 mph - N/A   Overcast
11:25 AM 84.2 °F 94.1 °F 77.0 °F 79% 29.94 in 10.0 mi WNW 11.5 mph - N/A   Overcast
11:51 AM 86.0 °F 95.1 °F 75.2 °F 70% 29.94 in 10.0 mi West 11.5 mph - N/A   Overcast
11:55 AM 85.5 °F 95.0 °F 75.7 °F 73% 29.94 in 10.0 mi West 11.5 mph - N/A   Overcast
12:25 PM 86.0 °F 95.1 °F 75.2 °F 70% 29.93 in 10.0 mi West 8.1 mph - N/A Thunderstorm Thunderstorm
12:38 PM 86.0 °F 95.1 °F 75.2 °F 70% 29.92 in 10.0 mi West 9.2 mph - N/A Rain , Thunderstorm Light Thunderstorms and Rain
12:44 PM 78.8 °F - 75.2 °F 89% 29.94 in 0.8 mi West 17.3 mph 25.3 mph N/A Rain , Thunderstorm Heavy Thunderstorms and Rain
12:58 PM 73.6 °F - 68.7 °F 85% 29.92 in 7.0 mi South 11.5 mph - 0.49 in Rain , Thunderstorm Light Thunderstorms and Rain
1:08 PM 75.2 °F - 69.8 °F 83% 29.92 in 10.0 mi WSW 3.5 mph - N/A Thunderstorm Thunderstorm
1:38 PM 78.8 °F - 71.6 °F 78% 29.92 in 10.0 mi South 8.1 mph - N/A Thunderstorm Mostly Cloudy
1:50 PM 78.8 °F - 71.6 °F 78% 29.91 in 10.0 mi SSE 9.2 mph - N/A   Mostly Cloudy
1:57 PM 78.3 °F - 72.3 °F 82% 29.91 in 10.0 mi South 8.1 mph - 0.01 in   Mostly Cloudy
2:28 PM 82.4 °F 88.2 °F 73.4 °F 74% 29.89 in 10.0 mi South 8.1 mph - N/A Rain , Thunderstorm Light Thunderstorms and Rain
2:55 PM 79.9 °F - 75.7 °F 87% 29.88 in 6.0 mi Calm Calm - 0.02 in Rain Light Rain
3:18 PM 80.6 °F 87.1 °F 77.0 °F 89% 29.88 in 10.0 mi West 4.6 mph - N/A Rain , Thunderstorm Light Rain
3:32 PM 80.6 °F 87.1 °F 77.0 °F 89% 29.89 in 10.0 mi NNW 5.8 mph - N/A Thunderstorm Thunderstorm
3:47 PM 80.6 °F 87.1 °F 77.0 °F 89% 29.89 in 10.0 mi NW 5.8 mph - N/A   Overcast
3:55 PM 80.6 °F 87.1 °F 77.2 °F 89% 29.89 in 10.0 mi North 8.1 mph - 0.00 in   Overcast
4:55 PM 80.6 °F 86.2 °F 75.4 °F 84% 29.89 in 10.0 mi North 3.5 mph - N/A   Overcast
5:56 PM 79.9 °F - 76.8 °F 90% 29.90 in 10.0 mi North 2.3 mph - N/A   Overcast
6:58 PM 79.9 °F - 76.3 °F 89% 29.91 in 8.0 mi NNW 2.3 mph - N/A   Mostly Cloudy
7:58 PM 78.3 °F - 73.2 °F 84% 29.92 in 10.0 mi NNW 1.2 mph - N/A   Mostly Cloudy
8:58 PM 76.6 °F - 73.4 °F 90% 29.91 in 10.0 mi North 2.3 mph - N/A   Mostly Cloudy
9:58 PM 75.2 °F - 72.7 °F 92% 29.91 in 10.0 mi WSW 4.6 mph - N/A   Mostly Cloudy
10:56 PM 75.6 °F - 70.9 °F 85% 29.92 in 10.0 mi WSW 5.8 mph - N/A   Mostly Cloudy
11:55 PM 76.5 °F - 70.9 °F 83% 29.91 in 10.0 mi WSW 4.6 mph - N/A   Mostly Cloudy